Year,Month,Day,Hour,Minute,Value (Times are PST for temperature in C)
2013,07,24,10,05,18.90
2013,07,24,10,06,18.90
2013,07,24,10,07,19.10
2013,07,24,10,08,19.10
2013,07,24,10,09,19.20
2013,07,24,10,10,19.20
2013,07,24,10,11,19.10
2013,07,24,10,12,19.10
2013,07,24,10,13,19.10
2013,07,24,10,14,19.10
2013,07,24,10,15,19.10
2013,07,24,10,16,19.10
2013,07,24,10,17,19.10
2013,07,24,10,18,19.20
2013,07,24,10,19,19.30
2013,07,24,10,20,19.40
2013,07,24,10,21,19.50
2013,07,24,10,22,19.60
2013,07,24,10,23,19.70
2013,07,24,10,24,19.90
2013,07,24,10,25,19.90
2013,07,24,10,26,20.10
2013,07,24,10,27,20.20
2013,07,24,10,28,20.20
2013,07,24,10,29,20.30
2013,07,24,10,30,20.30
2013,07,24,10,31,20.40
2013,07,24,10,32,20.40
2013,07,24,10,33,20.50
2013,07,24,10,34,20.50
2013,07,24,10,35,20.60
2013,07,24,10,36,20.60
2013,07,24,10,37,20.70
2013,07,24,10,38,20.70
2013,07,24,10,39,20.80
2013,07,24,10,40,20.90
2013,07,24,10,41,21.00
2013,07,24,10,42,21.10
2013,07,24,10,43,21.20
2013,07,24,10,44,21.30
2013,07,24,10,45,21.40
2013,07,24,10,46,21.50
2013,07,24,10,47,21.60
2013,07,24,10,48,21.60
2013,07,24,10,49,21.70
2013,07,24,10,50,21.60
2013,07,24,10,51,21.60
2013,07,24,10,52,21.40
2013,07,24,10,53,21.30
2013,07,24,10,54,21.10
2013,07,24,10,55,21.00
2013,07,24,10,56,21.00
2013,07,24,10,57,20.90
2013,07,24,10,58,20.70
2013,07,24,10,59,20.50
2013,07,24,11,00,20.20
2013,07,24,11,01,20.10
2013,07,24,11,02,20.10
2013,07,24,11,03,20.20
2013,07,24,11,04,20.10
2013,07,24,11,05,20.00
2013,07,24,11,06,19.90
2013,07,24,11,07,19.90
2013,07,24,11,08,19.90
2013,07,24,11,09,20.00
2013,07,24,11,10,20.10
2013,07,24,11,11,20.10
2013,07,24,11,12,20.20
2013,07,24,11,13,20.10
2013,07,24,11,14,19.90
2013,07,24,11,15,19.90
2013,07,24,11,16,20.00
2013,07,24,11,17,20.20
2013,07,24,11,18,20.30
2013,07,24,11,19,20.30
2013,07,24,11,20,20.30
2013,07,24,11,21,20.40
2013,07,24,11,22,20.40
2013,07,24,11,23,20.50
2013,07,24,11,24,20.80
2013,07,24,11,25,21.00
2013,07,24,11,26,21.00
2013,07,24,11,27,21.20
2013,07,24,11,28,21.30
2013,07,24,11,29,21.30
2013,07,24,11,30,21.30
2013,07,24,11,31,21.40
2013,07,24,11,32,21.60
2013,07,24,11,33,21.70
2013,07,24,11,34,22.00
2013,07,24,11,35,22.20
2013,07,24,11,36,22.30
2013,07,24,11,37,22.50
2013,07,24,11,38,22.50
2013,07,24,11,39,22.60
2013,07,24,11,40,22.60
2013,07,24,11,41,22.70
2013,07,24,11,42,22.70
2013,07,24,11,43,22.80
2013,07,24,11,44,22.90
2013,07,24,11,45,22.90
2013,07,24,11,46,22.90
2013,07,24,11,47,22.80
2013,07,24,11,48,22.80
2013,07,24,11,49,22.70
2013,07,24,11,50,22.70
2013,07,24,11,51,22.70
2013,07,24,11,52,22.60
2013,07,24,11,53,22.60
2013,07,24,11,54,22.60
2013,07,24,11,55,22.70
2013,07,24,11,56,22.80
2013,07,24,11,57,22.90
2013,07,24,11,58,23.00
2013,07,24,11,59,23.10
2013,07,24,12,00,23.20
2013,07,24,12,01,23.30
2013,07,24,12,02,23.30
2013,07,24,12,03,23.30
2013,07,24,12,04,23.30
2013,07,24,12,05,23.20
2013,07,24,12,06,23.00
2013,07,24,12,07,22.90
2013,07,24,12,08,22.80
2013,07,24,12,09,22.80
2013,07,24,12,10,22.80
2013,07,24,12,11,22.80
2013,07,24,12,12,22.80
2013,07,24,12,13,22.80
2013,07,24,12,14,22.80
2013,07,24,12,15,22.70
2013,07,24,12,16,22.70
2013,07,24,12,17,22.70
2013,07,24,12,18,22.80
2013,07,24,12,19,22.80
2013,07,24,12,20,22.80
2013,07,24,12,21,22.80
2013,07,24,12,22,22.80
2013,07,24,12,23,22.80
2013,07,24,12,24,22.90
2013,07,24,12,25,22.90
2013,07,24,12,26,22.90
2013,07,24,12,27,22.90
2013,07,24,12,28,23.00
2013,07,24,12,29,23.10
2013,07,24,12,30,23.20
2013,07,24,12,31,23.20
2013,07,24,12,32,23.30
2013,07,24,12,33,23.40
2013,07,24,12,34,23.50
2013,07,24,12,35,23.60
2013,07,24,12,36,23.70
2013,07,24,12,37,23.70
2013,07,24,12,38,23.70
2013,07,24,12,39,23.80
2013,07,24,12,40,23.80
2013,07,24,12,41,23.80
2013,07,24,12,42,23.90
2013,07,24,12,43,23.90
2013,07,24,12,44,23.90
2013,07,24,12,45,23.90
2013,07,24,12,46,23.90
2013,07,24,12,47,23.90
2013,07,24,12,48,24.00
2013,07,24,12,49,24.10
2013,07,24,12,50,24.30
2013,07,24,12,51,24.50
2013,07,24,12,52,24.60
2013,07,24,12,53,24.70
2013,07,24,12,54,24.80
2013,07,24,12,55,24.80
2013,07,24,12,56,24.60
2013,07,24,12,57,24.50
2013,07,24,12,58,24.40
2013,07,24,12,59,24.30
2013,07,24,13,00,24.40
2013,07,24,13,01,24.40
2013,07,24,13,02,24.40
2013,07,24,13,03,24.50
2013,07,24,13,04,24.50
2013,07,24,13,05,24.40
2013,07,24,13,06,24.20
2013,07,24,13,07,24.10
2013,07,24,13,08,24.10
2013,07,24,13,09,24.10
2013,07,24,13,10,24.10
2013,07,24,13,11,24.20
2013,07,24,13,12,24.30
2013,07,24,13,13,24.40
2013,07,24,13,14,24.40
2013,07,24,13,15,24.40
2013,07,24,13,16,24.30
2013,07,24,13,17,24.30
2013,07,24,13,18,24.30
2013,07,24,13,19,24.30
2013,07,24,13,20,24.40
2013,07,24,13,21,24.40
2013,07,24,13,22,24.40
2013,07,24,13,23,24.30
2013,07,24,13,24,24.20
2013,07,24,13,25,24.10
2013,07,24,13,26,24.00
2013,07,24,13,27,23.90
2013,07,24,13,28,23.90
2013,07,24,13,29,23.90
2013,07,24,13,30,23.90
2013,07,24,13,31,23.90
2013,07,24,13,32,23.70
2013,07,24,13,33,23.70
2013,07,24,13,34,23.40
2013,07,24,13,35,23.00
2013,07,24,13,36,22.60
2013,07,24,13,37,22.30
2013,07,24,13,38,22.10
2013,07,24,13,39,21.90
2013,07,24,13,40,21.80
2013,07,24,13,41,21.80
2013,07,24,13,42,21.80
2013,07,24,13,43,22.00
2013,07,24,13,44,22.00
2013,07,24,13,45,22.20
2013,07,24,13,46,22.30
2013,07,24,13,47,22.10
2013,07,24,13,48,21.80
2013,07,24,13,49,21.70
2013,07,24,13,50,21.90
2013,07,24,13,51,22.10
2013,07,24,13,52,22.10
2013,07,24,13,53,22.00
2013,07,24,13,54,21.80
2013,07,24,13,55,21.90
2013,07,24,13,56,22.00
2013,07,24,13,57,22.10
2013,07,24,13,58,22.10
2013,07,24,13,59,22.30
2013,07,24,14,00,22.50
2013,07,24,14,01,22.60
2013,07,24,14,02,22.60
2013,07,24,14,03,22.60
2013,07,24,14,04,22.70
2013,07,24,14,05,22.80
2013,07,24,14,06,22.90
2013,07,24,14,07,22.90
2013,07,24,14,08,23.00
2013,07,24,14,09,23.10
2013,07,24,14,10,23.20
2013,07,24,14,11,23.30
2013,07,24,14,12,23.30
2013,07,24,14,13,23.40
2013,07,24,14,14,23.30
2013,07,24,14,15,23.30
2013,07,24,14,16,23.30
2013,07,24,14,17,23.30
2013,07,24,14,18,23.30
2013,07,24,14,19,23.30
2013,07,24,14,20,23.20
2013,07,24,14,21,23.10
2013,07,24,14,22,23.10
2013,07,24,14,23,23.10
2013,07,24,14,24,23.10
2013,07,24,14,25,23.10
2013,07,24,14,26,23.10
2013,07,24,14,27,23.00
2013,07,24,14,28,22.90
2013,07,24,14,29,22.90
2013,07,24,14,30,22.80
2013,07,24,14,31,22.80
2013,07,24,14,32,22.80
2013,07,24,14,33,22.70
2013,07,24,14,34,22.70
2013,07,24,14,35,22.70
2013,07,24,14,36,22.70
2013,07,24,14,37,22.80
2013,07,24,14,38,22.80
2013,07,24,14,39,22.90
2013,07,24,14,40,22.90
2013,07,24,14,41,22.90
2013,07,24,14,42,22.90
2013,07,24,14,43,23.10
2013,07,24,14,44,23.10
2013,07,24,14,45,23.10
2013,07,24,14,46,23.10
2013,07,24,14,47,23.20
2013,07,24,14,48,23.20
2013,07,24,14,49,23.10
2013,07,24,14,50,23.10
2013,07,24,14,51,23.20
2013,07,24,14,52,23.20
2013,07,24,14,53,23.20
2013,07,24,14,54,23.20
2013,07,24,14,55,23.10
2013,07,24,14,56,23.00
2013,07,24,14,57,22.90
2013,07,24,14,58,22.90
2013,07,24,14,59,23.10
2013,07,24,15,00,23.10
2013,07,24,15,01,23.30
2013,07,24,15,02,23.30
2013,07,24,15,03,23.30
2013,07,24,15,04,23.40
2013,07,24,15,05,23.40
2013,07,24,15,06,23.40
2013,07,24,15,07,23.40
2013,07,24,15,08,23.40
2013,07,24,15,09,23.40
2013,07,24,15,10,23.50
2013,07,24,15,11,23.60
2013,07,24,15,12,23.70
2013,07,24,15,13,23.70
2013,07,24,15,14,23.70
2013,07,24,15,15,23.70
2013,07,24,15,16,23.70
2013,07,24,15,17,23.70
2013,07,24,15,18,23.60
2013,07,24,15,19,23.60
2013,07,24,15,20,23.50
2013,07,24,15,21,23.40
2013,07,24,15,22,23.30
2013,07,24,15,23,23.20
2013,07,24,15,24,23.10
2013,07,24,15,25,23.00
2013,07,24,15,26,22.90
2013,07,24,15,27,22.90
2013,07,24,15,28,22.90
2013,07,24,15,29,23.00
2013,07,24,15,30,23.10
2013,07,24,15,31,23.20
2013,07,24,15,32,23.40
2013,07,24,15,33,23.50
2013,07,24,15,34,23.60
2013,07,24,15,35,23.70
2013,07,24,15,36,23.70
2013,07,24,15,37,23.70
2013,07,24,15,38,23.60
2013,07,24,15,39,23.60
2013,07,24,15,40,23.40
2013,07,24,15,41,23.40
2013,07,24,15,42,23.30
2013,07,24,15,43,23.30
2013,07,24,15,44,23.30
2013,07,24,15,45,23.30
2013,07,24,15,46,23.30
2013,07,24,15,47,23.20
2013,07,24,15,48,23.10
2013,07,24,15,49,23.10
2013,07,24,15,50,23.00
2013,07,24,15,51,23.00
2013,07,24,15,52,23.10
2013,07,24,15,53,23.10
2013,07,24,15,54,23.10
2013,07,24,15,55,23.20
2013,07,24,15,56,23.20
2013,07,24,15,57,23.30
2013,07,24,15,58,23.50
2013,07,24,15,59,23.60
2013,07,24,16,00,23.70
2013,07,24,16,01,23.70
2013,07,24,16,02,23.70
2013,07,24,16,03,23.70
2013,07,24,16,04,23.70
2013,07,24,16,05,23.80
2013,07,24,16,06,23.90
2013,07,24,16,07,23.90
2013,07,24,16,08,23.90
2013,07,24,16,09,23.90
2013,07,24,16,10,23.90
2013,07,24,16,11,23.80
2013,07,24,16,12,23.80
2013,07,24,16,13,23.80
2013,07,24,16,14,23.90
2013,07,24,16,15,23.90
2013,07,24,16,16,23.90
2013,07,24,16,17,24.00
2013,07,24,16,18,24.10
2013,07,24,16,19,24.10
2013,07,24,16,20,24.00
2013,07,24,16,21,23.90
2013,07,24,16,22,24.00
2013,07,24,16,23,24.10
2013,07,24,16,24,24.10
2013,07,24,16,25,24.10
2013,07,24,16,26,24.10
2013,07,24,16,27,24.10
2013,07,24,16,28,24.30
2013,07,24,16,29,24.40
2013,07,24,16,30,24.40
2013,07,24,16,31,24.40
2013,07,24,16,32,24.50
2013,07,24,16,33,24.50
2013,07,24,16,34,24.70
2013,07,24,16,35,24.70
2013,07,24,16,36,24.70
2013,07,24,16,37,24.70
2013,07,24,16,38,24.70
2013,07,24,16,39,24.80
2013,07,24,16,40,24.80
2013,07,24,16,41,24.80
2013,07,24,16,42,24.80
2013,07,24,16,43,24.80
2013,07,24,16,44,24.90
2013,07,24,16,45,24.90
2013,07,24,16,46,25.00
2013,07,24,16,47,25.10
2013,07,24,16,48,25.10
2013,07,24,16,49,25.10
2013,07,24,16,50,25.20
2013,07,24,16,51,25.20
2013,07,24,16,52,25.20
2013,07,24,16,53,25.20
2013,07,24,16,54,25.20
2013,07,24,16,55,25.20
2013,07,24,16,56,25.10
2013,07,24,16,57,25.10
2013,07,24,16,58,25.10
2013,07,24,16,59,25.10
2013,07,24,17,00,25.10
2013,07,24,17,01,25.00
2013,07,24,17,02,25.10
2013,07,24,17,03,25.00
2013,07,24,17,04,25.00
2013,07,24,17,05,25.00
2013,07,24,17,06,25.10
2013,07,24,17,07,25.20
2013,07,24,17,08,25.30
2013,07,24,17,09,25.40
2013,07,24,17,10,25.60
2013,07,24,17,11,25.80
2013,07,24,17,12,25.80
2013,07,24,17,13,25.90
2013,07,24,17,14,25.90
2013,07,24,17,15,26.00
2013,07,24,17,16,26.20
2013,07,24,17,17,26.20
2013,07,24,17,18,26.30
2013,07,24,17,19,26.30
2013,07,24,17,20,26.30
2013,07,24,17,21,26.20
2013,07,24,17,22,26.20
2013,07,24,17,23,26.20
2013,07,24,17,24,26.10
2013,07,24,17,25,26.00
2013,07,24,17,26,26.00
2013,07,24,17,27,25.90
2013,07,24,17,28,25.90
2013,07,24,17,29,26.00
2013,07,24,17,30,25.90
2013,07,24,17,31,25.90
2013,07,24,17,32,25.90
2013,07,24,17,33,25.90
2013,07,24,17,34,25.90
2013,07,24,17,35,25.90
2013,07,24,17,36,25.90
2013,07,24,17,37,25.90
2013,07,24,17,38,25.90
2013,07,24,17,39,25.80
2013,07,24,17,40,25.80
2013,07,24,17,41,25.80
2013,07,24,17,42,25.70
2013,07,24,17,43,25.70
2013,07,24,17,44,25.70
2013,07,24,17,45,25.60
2013,07,24,17,46,25.50
2013,07,24,17,47,25.40
2013,07,24,17,48,25.40
2013,07,24,17,49,25.30
2013,07,24,17,50,25.30
2013,07,24,17,51,25.30
2013,07,24,17,52,25.20
2013,07,24,17,53,25.30
2013,07,24,17,54,25.30
2013,07,24,17,55,25.30
2013,07,24,17,56,25.30
2013,07,24,17,57,25.30
2013,07,24,17,58,25.40
2013,07,24,17,59,25.40
2013,07,24,18,00,25.40
2013,07,24,18,01,25.50
2013,07,24,18,02,25.50
2013,07,24,18,03,25.50
2013,07,24,18,04,25.50
2013,07,24,18,05,25.40
2013,07,24,18,06,25.40
2013,07,24,18,07,25.30
2013,07,24,18,08,25.30
2013,07,24,18,09,25.20
2013,07,24,18,10,25.10
2013,07,24,18,11,25.10
2013,07,24,18,12,25.00
2013,07,24,18,13,24.90
2013,07,24,18,14,24.90
2013,07,24,18,15,24.70
2013,07,24,18,16,24.60
2013,07,24,18,17,24.40
2013,07,24,18,18,24.30
2013,07,24,18,19,24.30
2013,07,24,18,20,24.10
2013,07,24,18,21,24.10
2013,07,24,18,22,23.90
2013,07,24,18,23,23.80
2013,07,24,18,24,23.70
2013,07,24,18,25,23.60
2013,07,24,18,26,23.40
2013,07,24,18,27,23.30
2013,07,24,18,28,23.30
2013,07,24,18,29,23.20
2013,07,24,18,30,23.20
2013,07,24,18,31,23.20
2013,07,24,18,32,23.20
2013,07,24,18,33,23.20
2013,07,24,18,34,23.10
2013,07,24,18,35,23.10
2013,07,24,18,36,23.00
2013,07,24,18,37,22.90
2013,07,24,18,38,22.90
2013,07,24,18,39,22.90
2013,07,24,18,40,22.90
2013,07,24,18,41,22.90
2013,07,24,18,42,23.00
2013,07,24,18,43,23.10
2013,07,24,18,44,23.30
2013,07,24,18,45,23.30
2013,07,24,18,46,23.30
2013,07,24,18,47,23.40
2013,07,24,18,48,23.40
2013,07,24,18,49,23.60
2013,07,24,18,50,23.60
2013,07,24,18,51,23.70
2013,07,24,18,52,23.70
2013,07,24,18,53,23.70
2013,07,24,18,54,23.70
2013,07,24,18,55,23.70
2013,07,24,18,56,23.80
2013,07,24,18,57,23.80
2013,07,24,18,58,23.90
2013,07,24,18,59,23.90
2013,07,24,19,00,23.90
2013,07,24,19,01,23.90
2013,07,24,19,02,24.00
2013,07,24,19,03,24.10
2013,07,24,19,04,24.10
2013,07,24,19,05,24.00
2013,07,24,19,06,23.90
2013,07,24,19,07,23.90
2013,07,24,19,08,23.80
2013,07,24,19,09,23.70
2013,07,24,19,10,23.70
2013,07,24,19,11,23.70
2013,07,24,19,12,23.60
2013,07,24,19,13,23.60
2013,07,24,19,14,23.60
2013,07,24,19,15,23.50
2013,07,24,19,16,23.40
2013,07,24,19,17,23.40
2013,07,24,19,18,23.30
2013,07,24,19,19,23.30
2013,07,24,19,20,23.30
2013,07,24,19,21,23.30
2013,07,24,19,22,23.30
2013,07,24,19,23,23.30
2013,07,24,19,24,23.30
2013,07,24,19,25,23.20
2013,07,24,19,26,23.20
2013,07,24,19,27,23.20
2013,07,24,19,28,23.20
2013,07,24,19,29,23.10
2013,07,24,19,30,23.10
2013,07,24,19,31,23.10
2013,07,24,19,32,23.10
2013,07,24,19,33,23.00
2013,07,24,19,34,22.90
2013,07,24,19,35,22.90
2013,07,24,19,36,22.90
2013,07,24,19,37,22.90
2013,07,24,19,38,22.90
2013,07,24,19,39,22.90
2013,07,24,19,40,22.80
2013,07,24,19,41,22.80
2013,07,24,19,42,22.70
2013,07,24,19,43,22.60
2013,07,24,19,44,22.50
2013,07,24,19,45,22.50
2013,07,24,19,46,22.40
2013,07,24,19,47,22.30
2013,07,24,19,48,22.30
2013,07,24,19,49,22.30
2013,07,24,19,50,22.20
2013,07,24,19,51,22.20
2013,07,24,19,52,22.10
2013,07,24,19,53,22.00
2013,07,24,19,54,21.90
2013,07,24,19,55,21.80
2013,07,24,19,56,21.70
2013,07,24,19,57,21.60
2013,07,24,19,58,21.50
2013,07,24,19,59,21.40
2013,07,24,20,00,21.30
2013,07,24,20,01,21.30
2013,07,24,20,02,21.20
2013,07,24,20,03,21.10
2013,07,24,20,04,21.00
2013,07,24,20,05,21.00
2013,07,24,20,06,20.90
2013,07,24,20,07,20.80
2013,07,24,20,08,20.80
2013,07,24,20,09,20.70
2013,07,24,20,10,20.70
2013,07,24,20,11,20.60
2013,07,24,20,12,20.60
2013,07,24,20,13,20.50
2013,07,24,20,14,20.50
2013,07,24,20,15,20.50
2013,07,24,20,16,20.50
2013,07,24,20,17,20.50
2013,07,24,20,18,20.40
2013,07,24,20,19,20.40
2013,07,24,20,20,20.40
2013,07,24,20,21,20.40
2013,07,24,20,22,20.40
2013,07,24,20,23,20.40
2013,07,24,20,24,20.40
2013,07,24,20,25,20.40
2013,07,24,20,26,20.40
2013,07,24,20,27,20.40
2013,07,24,20,28,20.40
2013,07,24,20,29,20.40
